Weather History for Cross City, FL

Change the Weather History Date:

Friday, March 22, 2013

  Actual Average Record
Temperature  
Mean Temperature 55 °F 63 °F  
Max Temperature 71 °F 77 °F 84 °F (2011)
Min Temperature 39 °F 50 °F 39 °F (1998)
Degree Days  
Heating Degree Days 10 3  
Month to date heating degree days 207 109  
Since 1 July heating degree days 1017 1229  
Cooling Degree Days 0 2  
Month to date cooling degree days 11 26  
Year to date cooling degree days 107 53  
Growing Degree Days 5 (Base 50)    
Moisture  
Dew Point 40 °F    
Average Humidity 58    
Maximum Humidity 92    
Minimum Humidity 34    
Precipitation  
Precipitation 0.00 in 0.14 in 0.03 in (2005)
Month to date precipitation 0.67 2.99  
Year to date precipitation 4.18 10.30  
Sea Level Pressure  
Sea Level Pressure 29.98 in    
Wind  
Wind Speed 4 mph (East)    
Max Wind Speed 12 mph    
Max Gust Speed 28 mph    
T = Trace of Precipitation, MM = Missing Value Source: NWS Daily Summary

Daily Weather History Graph

Daily Weather History Graph

Search for Another Location

Airport:

Trip Planner

Search our weather history database for the weather conditions in past years. The results will help you decide how hot, cold, wet, or windy it might be!

Date:

Astronomy

Mar. 22, 2013 Rise Set
Actual Time 7:33 AM EDT 7:45 PM EDT
Civil Twilight 7:09 AM EDT 8:09 PM EDT
Nautical Twilight 6:42 AM EDT 8:36 PM EDT
Astronomical Twilight 6:14 AM EDT 9:04 PM EDT
Moon 3:29 PM EDT (3/22) 4:14 AM EDT (3/22)
Length of Visible Light 12h 59m
Length of Day
12h 11m
Waxing Gibbous, 77% of the Moon is Illuminated
Mar 22
Waxing Gibbous
Mar 27
Full
Apr 3
Last Quarter
Apr 10
New
Apr 18
First Quarter

Hourly Weather History & Observations

Time (EDT) Temp. Windchill Dew Point Humidity Pressure Visibility Wind Dir Wind Speed Gust Speed Precip Events Conditions
12:53 AM 42.1 °F - 39.0 °F 89% 29.97 in - Calm Calm - N/A   Unknown
1:53 AM 39.9 °F - 37.0 °F 89% 29.95 in - Calm Calm - N/A   Unknown
2:53 AM 42.1 °F - 39.0 °F 89% 29.95 in - Calm Calm - N/A   Unknown
3:53 AM 41.0 °F - 37.9 °F 89% 29.94 in - Calm Calm - N/A   Unknown
4:53 AM 43.0 °F - 39.9 °F 89% 29.95 in - Calm Calm - N/A   Unknown
5:53 AM 45.0 °F - 42.1 °F 90% 29.97 in - Calm Calm - N/A   Unknown
6:53 AM 45.0 °F - 41.0 °F 86% 29.99 in - Calm Calm - N/A   Unknown
7:53 AM 46.0 °F 44.8 °F 42.1 °F 86% 30.02 in - NE 3.5 mph - N/A   Unknown
8:53 AM 51.1 °F - 34.0 °F 52% 30.02 in - ENE 5.8 mph - N/A   Unknown
9:53 AM 53.1 °F - 30.0 °F 41% 30.04 in - NE 5.8 mph - N/A   Unknown
10:53 AM 57.9 °F - 30.0 °F 35% 30.04 in - East 5.8 mph - N/A   Unknown
11:53 AM 63.0 °F - 33.1 °F 33% 30.04 in - NE 6.9 mph - N/A   Unknown
12:53 PM 64.0 °F - 36.0 °F 35% 30.02 in - ESE 4.6 mph - N/A   Unknown
1:53 PM 64.9 °F - 37.9 °F 37% 30.00 in - ESE 6.9 mph - N/A   Unknown
2:53 PM 66.0 °F - 39.0 °F 37% 29.97 in - ESE 6.9 mph - N/A   Unknown
3:53 PM 68.0 °F - 39.9 °F 36% 29.95 in - Variable 5.8 mph - N/A   Unknown
4:53 PM 69.1 °F - 41.0 °F 36% 29.93 in - East 4.6 mph - N/A   Unknown
5:53 PM 70.0 °F - 42.1 °F 36% 29.93 in - ESE 4.6 mph - N/A   Unknown
6:53 PM 69.1 °F - 43.0 °F 39% 29.95 in - Calm Calm - N/A   Unknown
7:53 PM 66.9 °F - 46.0 °F 47% 29.96 in - ENE 3.5 mph - N/A   Unknown
8:53 PM 66.0 °F - 45.0 °F 47% 29.99 in - East 3.5 mph - N/A   Unknown
9:53 PM 63.0 °F - 45.0 °F 52% 29.99 in - East 6.9 mph - N/A   Unknown
10:53 PM 61.0 °F - 45.0 °F 56% 30.00 in - East 5.8 mph - N/A   Unknown
11:53 PM 59.0 °F - 44.1 °F 58% 29.99 in - East 5.8 mph - N/A   Unknown